20170224,21398
20170227,21409
20170228,26751
20170301,28927
20170302,31142
20170303,31328
20170306,31370
20170307,31681
20170308,31799
20170309,32164
20170310,32239
20170313,32693
20170314,32897
20170315,33094
20170316,33215
20170317,33725
20170321,33795
20170322,33773
20170323,33692
20170324,34110
20170327,34290
20170328,34059
20170329,34502
20170330,34910
20170331,35233
20170403,35392
20170404,35541
20170405,35452
20170406,35687
20170407,35507
20170410,35542
20170411,35726
20170412,35558
20170413,35527
20170414,35448
20170417,35419
20170418,35441
20170419,35331
20170420,35589
20170421,35608
20170424,35676
20170425,36321
20170426,36566
20170427,36647
20170428,36659
20170501,36685
20170502,36745
20170508,36957
20170509,37034
20170510,37145
20170511,37047
20170512,37013
20170515,37055
20170516,37218
20170517,37274
20170518,36847
20170519,37059
20170522,37366
20170523,37502
20170524,37603
20170525,37598
20170526,37740
20170529,37929
20170530,37994
20170531,37956
20170601,37937
20170602,38279
20170605,38317
20170606,38271
20170607,38259
20170608,38196
20170609,38201
20170612,38262
20170613,37947
20170614,38209
20170615,38413
20170616,37947
20170619,38191
20170620,38546
20170621,38540
20170622,38501
20170623,38665
20170626,38839
20170627,39255
20170628,39314
20170629,39516
20170630,39693
20170703,39961
20170704,40436
20170705,40212
20170706,40068
20170707,40211
20170710,40412
20170711,40627
20170712,40838
20170713,41249
20170714,41463
20170718,41595
20170719,41618
20170720,42033
20170721,42309
20170724,42183
20170725,42517
20170726,42807
20170727,42746
20170728,43053
20170731,42968
20170801,43182
20170802,43521
20170803,43692
20170804,43606
20170807,43776
20170808,43885
20170809,44013
20170810,43779
20170814,43223
20170815,43838
20170816,43886
20170817,44028
20170818,44056
20170821,43478
20170822,43580
20170823,44032
20170824,44018
20170825,44017
20170828,44117
20170829,44109
20170830,43853
20170831,44164
20170901,44538
20170904,44915
20170905,44897
20170906,44709
20170907,44577
20170908,44547
20170911,44630
20170912,45145
20170913,45371
20170914,45584
20170915,44881
20170919,45192
20170920,45134
20170921,45392
20170922,45293
20170925,45649
20170926,45778
20170927,45891
20170928,46034
20170929,46096
20171002,46443
20171003,46573
20171004,46688
20171005,46642
20171006,46911
20171010,46830
20171011,46756
20171012,46678
20171013,46618
20171016,46762
20171017,46910
20171018,46901
20171019,46825
20171020,46601
20171023,46999
20171024,47000
20171025,46898
20171026,46968
20171027,47121
20171030,46799
20171031,47078
20171101,47184
20171102,47222
20171106,47707
20171107,47779
20171108,47899
20171109,47835
20171110,47459
20171113,47567
20171114,47514
20171115,47519
20171116,46974
20171117,47340
20171120,47106
20171121,47226
20171122,47439
20171124,47265
20171127,47517
20171128,47375
20171129,47423
20171130,47732
20171201,47554
20171204,47543
20171205,47672
20171206,47262
20171207,46914
20171208,47051
20171211,47510
20171212,47421
20171213,47484
20171214,47518
20171215,47402
20171218,47276
20171219,47627
20171220,47532
20171221,47487
20171222,47680
20171225,47732
20171226,47820
20171227,47822
20171228,47912
20171229,48581
20180104,49094
20180105,49748
20180109,50137
20180110,50361
20180111,50268
20180112,50549
20180115,50694
20180116,50674
20180117,51108
20180118,51134
20180119,51346
20180122,51569
20180123,51586
20180124,51670
20180125,51801
20180126,51515
20180129,51644
20180130,52028
20180131,51565
20180201,51897
20180202,51595
20180205,51322
20180206,50439
20180207,49297
20180208,49930
20180209,49498
20180213,48832
20180214,48649
20180215,48849
20180216,50086
20180219,50270
20180220,50570
20180221,50545
20180222,50459
20180223,49917
20180226,49919
20180227,50176
20180228,50197
20180301,49696
20180302,48410
20180305,47457
20180306,47691
20180307,48513
20180308,48275
20180309,48373
20180312,48522
20180313,48601
20180314,48707
20180315,48354
20180316,48035
20180319,48062
20180320,47382
20180322,47186
20180323,46419
20180326,45793
20180327,45485
20180328,46389
20180329,46230
20180330,46006
20180402,46077
20180403,46067
20180404,45956
20180405,45849
20180406,47100
20180409,46889
20180410,46508
20180411,46728
20180412,46908
20180413,47079
20180416,47191
20180417,46969
20180418,47378
20180419,48306
20180420,48143
20180423,47937
20180424,47807
20180425,48008
20180426,46639
20180427,47192
20180501,47661
20180502,48078
20180507,47294
20180508,47289
20180509,47865
20180510,48105
20180511,48041
20180514,48838
20180515,49090
20180516,48722
20180517,49030
20180518,49165
20180521,49238
20180522,49191
20180523,49669
20180524,49176
20180525,49247
20180528,49447
20180529,49542
20180530,49190
20180531,49498
20180601,49693
20180604,50220
20180605,50612
20180606,50521
20180607,50576
20180608,50820
20180611,50462
20180612,50819
20180613,50763
20180614,50842
20180615,50952
20180618,50700
20180619,50559
20180620,50115
20180621,50533
20180622,50274
20180625,50346
20180626,49584
20180627,49698
20180628,50066
20180629,49751
20180702,50516
20180703,50209
20180704,50687
20180705,50633
20180706,50524
20180709,50834
20180710,51612
20180711,52006
20180712,51793
20180713,51864
20180717,52098
20180718,52253
20180719,52417
20180720,52404
20180723,52046
20180724,52116
20180725,52658
20180726,52336
20180727,52807
20180730,52968
20180731,52627
20180801,52788
20180802,53023
20180803,52676
20180806,53010
20180807,53098
20180808,53546
20180809,53094
20180810,53232
20180813,52745
20180814,52921
20180815,52835
20180816,52824
20180817,52707
20180820,52625
20180821,52873
20180822,53332
20180823,53398
20180824,53440
20180827,53473
20180828,53602
20180829,54282
20180830,54534
20180831,54584
20180903,54992
20180904,55275
20180905,54998
20180906,54684
20180907,54494
20180910,54282
20180911,54428
20180912,54369
20180913,54502
20180914,54982
20180918,55155
20180919,55321
20180920,55669
20180921,55957
20180925,56243
20180926,56448
20180927,56520
20180928,56920
20181001,57076
20181002,57637
20181003,57348
20181004,57434
20181005,56975
20181009,56090
20181010,55912
20181011,55291
20181012,54468
20181015,54321
20181016,53959
20181017,54428
20181018,55064
20181019,55014
20181022,54831
20181023,54216
20181024,53255
20181025,53661
20181026,52822
20181029,52411
20181030,53378
20181031,52868
20181101,54246
20181102,54124
20181105,54452
20181106,54171
20181107,54549
20181108,55056
20181109,55623
20181112,55003
20181113,54764
20181114,54281
20181115,54362
20181116,53414
20181119,53858
20181120,53791
20181121,52290
20181122,52827
20181126,52623
20181127,53195
20181128,53112
20181129,53408
20181130,54307
20181203,54443
20181204,55159
20181205,54804
20181206,54845
20181207,52544
20181210,53581
20181211,52184
20181212,52923
20181213,53087
20181214,52876
20181217,52424
20181218,51232
20181219,51343
20181220,51350
20181221,49923
20181225,49364
20181226,49403
20181227,49458
20181228,48668
20190104,49474
20190107,50097
20190108,50750
20190109,51448
20190110,51845
20190111,51633
20190115,51827
20190116,52281
20190117,52847
20190118,52877
20190121,53557
20190122,53631
20190123,53525
20190124,53590
20190125,53501
20190128,53866
20190129,53456
20190130,53761
20190131,53778
20190201,54628
20190204,54799
20190205,54944
20190206,55511
20190207,55616
20190208,55237
20190212,55042
20190213,55522
20190214,56063
20190215,55848
20190218,56335
20190219,56442
20190220,56569
20190221,56787
20190222,56759
20190225,56863
20190226,57197
20190227,56841
20190228,56877
20190301,56992
20190304,57465
20190305,57613
20190306,57100
20190307,57070
20190308,56435
20190311,55928
20190312,56655
20190313,56912
20190314,57192
20190315,57359
20190318,57637
20190319,57894
20190320,58046
20190322,57811
20190325,57436
20190326,57220
20190327,57776
20190328,57540
20190329,57776
20190401,58046
20190402,58808
20190403,58991
20190404,59163
20190405,59173
20190408,59166
20190409,59061
20190410,58933
20190411,58826
20190412,59025
20190415,59141
20190416,59000
20190417,59027
20190418,58859
20190419,58472
20190422,58346
20190423,58329
20190424,58581
20190425,58648
20190426,58366
20190507,58350
20190508,57544
20190509,56973
20190510,56871
20190513,56554
20190514,55504
20190515,55532
20190516,55531
20190517,56406
20190520,56008
20190521,55598
20190522,55928
20190523,55957
20190524,55009
20190527,55166
20190528,55164
20190529,55248
20190530,54059
20190531,53930
20190603,53183
20190604,52915
20190605,53409
20190606,54054
20190607,54181
20190610,54722
20190611,54649
20190612,55379
20190613,55020
20190614,55122
20190617,54781
20190618,54804
20190619,55312
20190620,55038
20190621,55563
20190624,55117
20190625,55030
20190626,54867
20190627,54513
20190628,54483
20190701,54485
20190702,55086
20190703,54944
20190704,55340
20190705,55317
20190708,55104
20190709,54865
20190710,54633
20190711,54890
20190712,54803
20190716,54853
20190717,54837
20190718,54413
20190719,53983
20190722,54369
20190723,54136
20190724,54145
20190725,54199
20190726,54016
20190729,54208
20190730,54123
20190731,53712
20190801,54010
20190802,53534
20190805,52545
20190806,51327
20190807,51171
20190808,50745
20190809,51656
20190813,51313
20190814,51834
20190815,50912
20190816,50872
20190819,50714
20190820,51408
20190821,51105
20190822,51531
20190823,51408
20190826,50843
20190827,50735
20190828,50479
20190829,50046
20190830,50575
20190902,50650
20190903,50614
20190904,50230
20190905,50286
20190906,50891
20190909,50978
20190910,50819
20190911,50427
20190912,50566
20190913,50730
20190917,50640
20190918,50473
20190919,50504
20190920,50651
20190924,50211
20190925,50417
20190926,49612
20190927,49819
20190930,49702
20191001,49555
20191002,49579
20191003,48093
20191004,47901
20191007,48227
20191008,48352
20191009,47799
20191010,47824
20191011,48096
20191015,48426
20191016,48523
20191017,48418
20191018,48604
20191021,48187
20191023,48451
20191024,48102
20191025,48227
20191028,48094
20191029,48470
20191030,48484
20191031,47993
20191101,47752
20191105,48388
20191106,48369
20191107,48101
20191108,47764
20191111,47304
20191112,47193
20191113,47353
20191114,46915
20191115,46759
20191118,46810
20191119,46732
20191120,46734
20191121,46529
20191122,46276
20191125,46181
20191126,46272
20191127,46327
20191128,46028
20191129,45854
20191202,45817
20191203,45233
20191204,44458
20191205,44864
20191206,44662
20191209,44982
20191210,44786
20191211,44518
20191212,44456
20191213,44647
20191216,44714
20191217,44797
20191218,44532
20191219,44382
20191220,44208
20191223,44141
20191224,43819
20191225,43632
20191226,43637
20191227,43617
20191230,43686
20200106,43058
20200107,42804
20200108,42928
20200109,43152
20200110,43247
20200114,43231
20200115,43009
20200116,42994
20200117,42902
20200120,42823
20200121,42652
20200122,42583
20200123,42198
20200124,41710
20200127,41707
20200128,40492
20200129,40492
20200130,40685
20200131,40332
20200203,40249
20200204,40189
20200205,40648
20200206,41065
20200207,41277
20200210,40930
20200212,41229
20200213,41320
20200214,41162
20200217,41071
20200218,40881
20200219,40873
20200220,40730
20200221,40574
20200225,38513
20200226,38114
20200227,37268
20200228,35921
20200302,34221
20200303,34884
20200304,35886
20200305,35656
20200306,35524
20200309,34344
20200310,32765
20200311,32750
20200312,32390
20200313,30000
20200316,29682
20200317,28499
20200318,27780
20200319,26937
20200323,27991
20200324,25965
20200325,27352
20200326,28155
20200327,29106
20200330,28838
20200331,29227
20200401,29470
20200402,28558
20200403,28236
20200406,28599
20200407,29451
20200408,30908
20200409,30177
20200410,31439
20200413,31408
20200414,31359
20200415,31682
20200416,31173
20200417,31212
20200420,32050
20200421,31817
20200422,31337
20200423,31280
20200424,31602
20200427,31441
20200428,32059
20200430,32474
20200501,32423
20200507,32094
20200508,32306
20200511,32338
20200512,32717
20200513,32891
20200514,32374
20200515,31471
20200518,32116
20200519,32951
20200520,33056
20200521,33292
20200522,33275
20200525,33027
20200526,32945
20200527,33573
20200528,33188
20200529,33643
20200601,33611
20200602,33509
20200603,34084
20200604,34436
20200605,34529
20200608,34842
20200609,34823
20200610,34750
20200611,34675
20200612,33988
20200615,33623
20200616,32918
20200617,34275
20200618,34094
20200619,33871
20200622,34059
20200623,33747
20200624,33686
20200625,33758
20200626,33282
20200629,33579
20200630,32985
20200701,33278
20200702,33552
20200703,34140
20200706,34092
20200707,34246
20200708,34064
20200709,34015
20200710,34046
20200713,33692
20200714,34225
20200715,33380
20200716,33865
20200717,33749
20200720,33741
20200721,33760
20200722,34003
20200727,32988
20200728,33308
20200729,33177
20200730,33171
20200731,32749
20200803,33225
20200804,33495
20200805,33441
20200806,33596
20200807,33608
20200811,33465
20200812,33443
20200813,33326
20200814,33470
20200817,33238
20200818,33282
20200819,33240
20200820,33200
20200821,32816
20200824,32860
20200825,33107
20200826,32869
20200827,32835
20200828,32884
20200831,32540
20200901,32421
20200902,32696
20200903,32565
20200904,32165
20200907,30952
20200908,30840
20200909,30397
20200910,30495
20200911,30821
20200914,30265
20200915,30579
20200916,30825
20200917,30821
20200918,30242
20200923,29951
20200924,30186
20200925,29589
20200928,29660
20200929,30288
20200930,30518
20201001,30507
20201002,30677
20201005,30397
20201006,30513
20201007,30546
20201008,30456
20201009,30601
20201012,30624
20201013,30829
20201014,31045
20201015,30996
20201016,30258
20201019,30390
20201020,30182
20201021,29757
20201022,29654
20201023,29199
20201026,29093
20201027,28729
20201028,28696
20201029,27881
20201030,27946
20201102,27408
20201104,28146
20201105,28750
20201106,29493
20201109,29260
20201110,29598
20201111,28604
20201112,28788
20201113,28925
20201116,28503
20201117,28608
20201118,28514
20201119,28422
20201120,28188
20201124,28189
20201125,28174
20201126,28157
20201127,28063
20201130,28309
20201201,28220
20201202,28275
20201203,28176
20201204,28148
20201207,28180
20201208,28133
20201209,28117
20201210,28204
20201211,27813
20201214,27710
20201215,27910
20201216,27649
20201217,27770
20201218,27781
20201221,27690
20201222,27278
20201223,27454
20201224,27482
20201225,27410
20201228,27403
20201229,27405
20201230,27539
20210104,27298
20210105,27509
20210106,27297
20210107,27362
20210108,27752
20210112,27828
20210113,27841
20210114,27857
20210115,27963
20210118,27648
20210119,27470
20210120,27496
20210121,27674
20210122,27831
20210125,27730
20210126,27753
20210127,27597
20210128,26930
20210129,26919
20210201,26745
20210202,26725
20210203,27221
20210204,27247
20210205,27430
20210208,27599
20210209,27808
20210210,27768
20210212,27665
20210215,27593
20210216,27569
20210217,27871
20210218,27626
20210219,27333
20210222,27413
20210224,26558
20210225,26709
20210226,27072
20210301,26492
20210302,26812
20210303,26969
20210304,26525
20210305,26132
20210308,25785
20210309,26254
20210310,26390
20210311,26429
20210312,26430
20210315,26438
20210316,26524
20210317,26751
20210318,26413
20210319,26519
20210322,26305
20210323,26383
20210324,26314
20210325,26211
20210326,25781
20210329,26307
20210330,26370
20210331,26319
20210401,26443
20210402,26573
20210405,26551
20210406,26514
20210407,27027
20210408,26877
20210409,26882
20210412,26986
20210413,27008
20210414,27016
20210415,26982
20210416,27024
20210419,27092
20210420,27084
20210421,26907
20210422,26691
20210423,26779
20210426,26715
20210427,26908
20210428,26864
20210430,26849
20210506,26637
20210507,26538
20210510,26872
20210511,26959
20210512,26448
20210513,26154
20210514,26129
20210517,26297
20210518,26162
20210519,26298
20210520,25769
20210521,26077
20210524,26335
20210525,26307
20210526,26418
20210527,26375
20210528,26529
20210531,26511
20210601,26464
20210602,26593
20210603,26511
20210604,26351
20210607,26563
20210608,26648
20210609,26660
20210610,26635
20210611,26640
20210614,26700
20210615,26696
20210616,26658
20210617,26680
20210618,26410
20210621,26082
20210622,26113
20210623,26244
20210624,26262
20210625,26565
20210628,26598
20210629,26594
20210630,26654
20210701,26595
20210702,26626
20210705,26701
20210706,26685
20210707,26756
20210708,26792
20210709,26363
20210712,26747
20210713,26872
20210714,26893
20210715,26906
20210716,26665
20210719,26628
20210720,25909
20210721,26174
20210726,26743
20210727,26894
20210728,26782
20210729,26727
20210730,26870
20210802,26868
20210803,26902
20210804,26702
20210805,26964
20210806,26975
20210810,27011
20210811,27046
20210812,27112
20210813,27079
20210816,27164
20210817,27071
20210818,27104
20210819,27074
20210820,26664
20210823,26714
20210824,26928
20210825,27092
20210826,27103
20210827,27141
20210830,27096
20210831,27072
20210901,27298
20210902,27257
20210903,27336
20210906,27327
20210907,27292
20210908,27373
20210909,27222
20210910,27220
20210913,27263
20210914,27112
20210915,27076
20210916,26987
20210917,27079
20210921,26380
20210922,26581
20210924,26962
20210927,26932
20210928,26832
20210929,26474
20210930,26453
20211001,26282
20211004,25850
20211005,25966
20211006,25877
20211007,25713
20211008,26328
20211011,26303
20211012,26393
20211013,26191
20211014,26221
20211015,26535
20211018,26769
20211019,26705
20211020,26964
20211021,26936
20211022,26917
20211025,26885
20211026,26903
20211027,26974
20211028,26893
20211029,26839
20211101,26869
20211102,26833
20211104,27100
20211105,27302
20211108,27255
20211109,27329
20211110,27156
20211111,27174
20211112,27077
20211115,27143
20211116,27263
20211117,27188
20211118,27094
20211119,27120
20211122,27201
20211124,26984
20211125,26712
20211126,26695
20211129,26420
20211130,26516
20211201,26474
20211202,26372
20211203,26089
20211206,26000
20211207,25995
20211208,26696
20211209,26774
20211210,26764
20211213,26645
20211214,26669
20211215,26357
20211216,26172
20211217,26676
20211220,26241
20211221,25933
20211222,26108
20211223,26369
20211224,26709
20211227,26673
20211228,26677
20211229,26680
20211230,27083
20220104,27020
20220105,27159
20220106,27062
20220107,26502
20220111,25972
20220112,26164
20220113,26688
20220114,26695
20220117,26290
20220118,26243
20220119,25941
20220120,25916
20220121,25743
20220124,25052
20220125,24255
20220126,24236
20220127,24879
20220128,24755
20220131,24140
20220201,24798
20220202,25254
20220203,25497
20220204,25215
20220207,24919
20220208,25078
20220209,24867
20220210,25481
20220214,25221
20220215,24790
20220216,24994
20220217,24957
20220218,24874
20220221,24772
20220222,24833
20220224,24449
20220225,23467
20220228,24195
20220301,24355
20220302,24358
20220303,24265
20220304,24541
20220307,23962
20220308,23786
20220309,23127
20220310,23585
20220311,23717
20220314,23802
20220315,23784
20220316,23619
20220317,24285
20220318,24367
20220322,25063
20220323,25264
20220324,25117
20220325,25102
20220328,25320
20220329,25402
20220330,25623
20220331,25715
20220401,25510
20220404,25271
20220405,25342
20220406,25387
20220407,24724
20220408,24803
20220411,24763
20220412,24750
20220413,24822
20220414,24518
20220415,24770
20220418,24758
20220419,24780
20220420,24815
20220421,24988
20220422,25197
20220425,24319
20220426,23509
20220427,23686
20220428,23580
20220502,23952
20220506,23662
20220509,22773
20220510,22748
20220511,22454
20220512,22405
20220513,21735
20220516,22307
20220517,22320
20220518,22645
20220519,22489
20220520,21916
20220523,22095
20220524,22101
20220525,22010
20220526,22123
20220527,22088
20220530,22868
20220531,22886
20220601,22909
20220602,23063
20220603,23011
20220606,23050
20220607,23085
20220608,22861
20220609,23046
20220610,22761
20220613,21741
20220614,21002
20220615,20883
20220616,20930
20220617,20351
20220620,20392
20220621,20344
20220622,20671
20220623,20404
20220624,20404
20220627,20682
20220628,20928
20220629,21210
20220630,20675
20220701,20195
20220704,20380
20220705,20388
20220706,20086
20220707,20329
20220708,20634
20220711,20586
20220712,20573
20220713,20500
20220714,20210
20220715,19952
20220719,20705
20220720,20668
20220721,20884
20220722,20997
20220725,21134
20220726,21023
20220727,20940
20220728,20989
20220729,21174
20220801,21543
20220802,21693
20220803,21591
20220804,21677
20220805,21701
20220808,21606
20220809,21878
20220810,21611
20220812,22165
20220815,22070
20220816,22110
20220817,22248
20220818,22210
20220819,22245
20220822,21950
20220823,21623
20220824,21603
20220825,21548
20220826,21764
20220829,21928
20220830,21895
20220831,21130
20220901,20997
20220902,20564
20220905,20842
20220906,20801
20220907,20500
20220908,20487
20220909,20731
20220912,21092
20220913,21406
20220914,21037
20220915,20723
20220916,20767
20220920,20175
20220921,20185
20220922,20240
20220926,19300
20220927,19227
20220928,19258
20220929,19135
20220930,18994
20221003,19078
20221004,19027
20221005,19743
20221006,19628
20221007,19741
20221011,19090
20221012,18856
20221013,18909
20221014,18555
20221017,19247
20221018,19222
20221019,19556
20221020,19315
20221021,19300
20221024,19154
20221025,19575
20221026,19769
20221027,19736
20221028,19724
20221031,19771
20221101,19918
20221102,19896
20221104,19437
20221107,19554
20221108,19423
20221109,19615
20221110,19569
20221111,19982
20221114,20156
20221115,20241
20221116,20356
20221117,20081
20221118,19799
20221121,20049
20221122,20031
20221124,20257
20221125,20231
20221128,20343
20221129,20283
20221130,20134
20221201,20077
20221202,20580
20221205,20261
20221206,20257
20221207,20053
20221208,19889
20221209,19975
20221212,19985
20221213,19929
20221214,20527
20221215,20226
20221216,19762
20221219,19550
20221220,19362
20221221,19256
20221222,19352
20221223,19322
20221226,19080
20221227,19060
20221228,19070
20221229,19230
20221230,19141
20230104,19191
20230105,19223
20230106,19089
20230110,19542
20230111,19388
20230112,19554
20230113,19558
20230116,19653
20230117,19663
20230118,19914
20230119,19963
20230120,19535
20230123,19552
20230124,19851
20230125,19866
20230126,19738
20230127,20059
20230130,20215
20230131,20210
20230201,20106
20230202,20238
20230203,20557
20230206,20564
20230207,20367
20230208,20247
20230209,20506
20230210,20590
20230213,20233
20230214,20376
20230215,20525
20230216,20396
20230217,20383
20230220,20201
20230221,20159
20230222,20107
20230224,20051
20230227,19723
20230228,19978
20230301,19892
20230302,19826
20230303,19704
20230306,20014
20230307,20162
20230308,20176
20230309,19921
20230310,19966
20230313,19387
20230314,19142
20230315,19312
20230316,18885
20230317,19087
20230320,18971
20230322,19351
20230323,19415
20230324,19402
20230327,19008
20230328,19297
20230329,19249
20230330,19479
20230331,19689
20230403,19772
20230404,19909
20230405,19930
20230406,19812
20230407,19685
20230410,19687
20230411,19703
20230412,19863
20230413,19902
20230414,19852
20230417,20115
20230418,19995
20230419,20063
20230420,19978
20230421,19906
20230424,19869
20230425,19959
20230426,19826
20230427,19647
20230428,19626
20230501,19796
20230502,19797
20230508,19633
20230509,19633
20230510,19628
20230511,19726
20230512,19605
20230515,19750
20230516,19669
20230517,19691
20230518,19635
20230519,19615
20230522,19911
20230523,19869
20230524,19715
20230525,19417
20230526,19479
20230529,19642
20230530,19600
20230531,19743
20230601,19522
20230602,19482
20230605,19902
20230606,19984
20230607,19961
20230608,20073
20230609,19885
20230612,20053
20230613,20026
20230614,20247
20230615,20312
20230616,20277
20230619,20503
20230620,20492
20230621,20273
20230622,20158
20230623,20143
20230626,20139
20230627,20099
20230628,19939
20230629,20119
20230630,20165
20230703,20372
20230704,20391
20230705,20394
20230706,20322
20230707,19971
20230710,19979
20230711,19889
20230712,19925
20230713,20133
20230714,20264
20230718,20272
20230719,20369
20230720,20565
20230721,20475
20230724,20356
20230725,20315
20230726,20376
20230727,20338
20230728,20571
20230731,20466
20230801,20515
20230802,20454
20230803,20228
20230804,19982
20230807,20018
20230808,19937
20230809,19814
20230810,19917
20230814,19736
20230815,19686
20230816,19667
20230817,19622
20230818,19386
20230821,19134
20230822,19296
20230823,19344
20230824,19359
20230825,19548
20230828,19315
20230829,19307
20230830,19510
20230831,19796
20230901,19859
20230904,19908
20230905,19904
20230906,19856
20230907,19840
20230908,19635
20230911,19709